Retour au catalogue

COSMOS 2251 DEB

ActifVLEO
NORAD 34856·DEBRIS·🇷🇺 Russia

Lancé Jun 16, 1993 depuis Plesetsk Cosmodrome

Loading…

Prochains Passages (prochaines 24 heures)

TLE

FraisSource: Space-Track

Époque: Sep 14, 2026, 21:54 UTC

1 34856U 93036ACA 26257.91312598  .00035702  00000-0  15867-2 0  9993
2 34856  74.0024 230.0831 0030159 289.4370 100.6007 15.20944257932910

Suivez COSMOS 2251 DEB en temps réel avec AllMySat

Download on the App Store